星链-36585(STARLINK-36585)

导读

STARLINK-36585是美国SpaceX星链星座的成员卫星,星链项目旨在构建全球卫星互联网星座,为全球提供高速低延迟网络服务。该星于2026年1月22日发射升空,入轨后将参与星链星座组网,补充完善星座覆盖能力,进一步推动全球互联网普及,尤其服务偏远地区和移动场景的网络接入需求。

Basic Information
目录编号:
67540
目录名称:
STARLINK-36585
国际标识:
2026-014J
轨道中心:
EARTH
卫星名称:
星链-36585
卫星全名:
星链-36585(STARLINK-36585)
卫星状态:
在轨 (已飞行226 天)
发射日期:
2026-01-22 UTC
国别 :
美国 (US)
星等 :
--
Orbit Information
数据来源 国际轨道数据
星历时间: 2026-09-05T12:45:45+0800
8小时前
查看轨道信息
半长轴: 6843.712km
偏心率: 0.0001852
轨道倾角: 97.285°
近地点辐角 91.085°
升交点赤经 133.785°
平近点角 269.061°
近地点: 464.307km
远地点: 466.843km
周期: 93.907分钟
每日圈数: 15.334346
Detailed Information
固有亮度:
5
最大亮度:
2.5
卫星平台:
Starlink V1.0
覆盖范围:
全球
运营商:
太空探索技术公司
运营商所在国:
美国
制造商(研发单位):
太空探索技术公司
制造商所在国:
美国
使用方式:
暂无
Satellite Introduction
Starlink 计划是 SpaceX 推出的全球卫星互联网项目,通过发射低轨道卫星,为全球尤其是偏远地区提供高速、低延迟的互联网服务。自 2019 年起,Starlink 已部署数千颗卫星,旨在缩小全球数字鸿沟,推动互联网普及。该项目还为军事、航空等行业提供通信支持,带来广泛经济效益。
2D Orbit Map
3D Orbit Map
Orbit Altitude Analysis Chart
Orbit Inclination Analysis Chart
Orbit Comprehensive Analysis Chart
View Comprehensive Chart
Conjunction Data List
Event ID Objects TCA Miss Dist (km) Collision Risk Probability Collision Risk Index (CRI) Action
CDM_260907-081406-047906-754022
2026-09-07T
08:14:47+0000
0.754 km
远距离
6.909391E-5 中风险 0.72
CDM_260907-064006-047906-754022
2026-09-07T
06:40:50+0000
0.921 km
远距离
3.626164E-5 中风险 0.66
CDM_260907-165106-047906-754021
2026-09-07T
16:51:33+0000
1.078 km
极远距离
2.113436E-5 中风险 0.61
CDM_260907-151706-047906-754021
2026-09-07T
15:17:36+0000
1.471 km
极远距离
7.231498E-6 低风险 0.52
CDM_260907-182506-047906-754021
2026-09-07T
18:25:30+0000
1.868 km
极远距离
3.465123E-6 低风险 0.46
CDM_260907-094806-047906-754022
2026-09-07T
09:48:45+0000
1.897 km
极远距离
3.318884E-6 低风险 0.45
CDM_260907-050606-047906-754021
2026-09-07T
05:06:53+0000
2.106 km
极远距离
2.536114E-6 低风险 0.43
CDM_260907-134306-047906-754021
2026-09-07T
13:43:38+0000
2.547 km
极远距离
1.713739E-6 低风险 0.4
CDM_260907-231505-357606-754021
2026-09-07T
23:15:48+0000
2.866 km
极远距离
1.415E-6 低风险 0.38
CDM_260906-082305-265706-754021
2026-09-06T
08:23:51+0000
2.591 km
极远距离
1.363042E-6 低风险 0.38